"Pseudo-MPEC" for A1189Fm

Created 2024 Jul 11 22:22:03 UT using Find_Orb

Click here for an explanation of pseudo-MPECs

 
 Astrometry: 
     A1189Fm* C2024 07 05E2MAstrometryAredacted;eQ-NkclickjY]UhD/@bH+5NXfG=T!M22
     A1189Fm  C2024 07 05](duno(vhereaL0x[xBkr_mXt/,,v-forIPc?gcH,9p!ulH:)T7NM22
     A1189Fm  C2024 07 05'vB_JQEVMexplanation-YWpRyYT+LJ`Hq#pM=S(.\c*$TUGd]TwM22

Station data:
(M22) ATLAS South Africa, Sutherland  (S32.380156 E20.810590)  South Africa.
   Observers L. Denneau, R. Siverd, J. Tonry, H. Weiland. Measurers L.
   Denneau, N. Erasmus, A. Fitzsimmons, A. Lawrence, J. Robinson, R. Siverd,
   J. Tonry, H. Weiland. 0.5-m reflector + CCD.

Orbital elements:  A1189Fm
   Perigee 2024 Jul 6.09602 +/- 28.1 TT =  2:18:16 (JD 2460497.59602)
Epoch 2024 Jul  6.0 TT = JDT 2460497.5                           AutoNEOCP
q 79932.5339 +/- 3.24e+7            (J2000 equator)
H   27.76 G 0.15                    Peri.   83.74294 +/- 58
                                    Node   300.33707 +/- 80
e 244.8984750 +/- 0.243             Incl.   41.92484 +/- 5.7
From 3 observations 2024 July 5 (6.5 min); mean residual 5".67
Residuals in arcseconds: 
240705 M22  5.3-  5.2-    240705 M22  7.9+  7.8+    240705 M22  2.7-  2.6-    

Ephemerides (geocentric):
Date (UTC) HH   RA             Dec           delta  r     elong  mag " sig PA
---- --------  ------------   ------------  ------ ------ -----  --- --------
2024 07 11 22  07 42 29.411   +04 17 01.11  .11757 .90563  18.2 33??  59d  82
2024 07 11 23  07 42 29.635   +04 17 01.48  .11841 .90483  18.2 33??  59d  82
2024 07 12 00  07 42 29.853   +04 17 01.95  .11926 .90402  18.1 33??  59d  82
2024 07 12 01  07 42 30.067   +04 17 02.52  .12011 .90322  18.1 33??  59d  82
2024 07 12 02  07 42 30.276   +04 17 03.19  .12095 .90241  18.1 33??  59d  82
2024 07 12 03  07 42 30.480   +04 17 03.97  .12180 .90161  18.1 33??  58d  82
2024 07 12 04  07 42 30.679   +04 17 04.84  .12265 .90080  18.1 33??  58d  82
2024 07 12 05  07 42 30.874   +04 17 05.81  .12349 .90000  18.1 33??  58d  82
2024 07 12 06  07 42 31.064   +04 17 06.88  .12434 .89919  18.1 33??  58d  82
2024 07 12 07  07 42 31.250   +04 17 08.05  .12519 .89838  18.0 33??  58d  82
2024 07 12 08  07 42 31.432   +04 17 09.31  .12604 .89758  18.0 33??  58d  82
2024 07 12 09  07 42 31.609   +04 17 10.66  .12688 .89677  18.0 33??  58d  82
2024 07 12 10  07 42 31.782   +04 17 12.11  .12773 .89596  18.0 33??  60d  81
2024 07 12 11  07 42 31.951   +04 17 13.65  .12858 .89516  18.0 33??  61d  81
2024 07 12 12  07 42 32.117   +04 17 15.28  .12943 .89435  18.0 33??  62d  81
2024 07 12 13  07 42 32.278   +04 17 17.00  .13027 .89354  18.0 33??  62d  82
2024 07 12 14  07 42 32.436   +04 17 18.81  .13112 .89273  17.9 33??  62d  82
2024 07 12 15  07 42 32.590   +04 17 20.71  .13197 .89193  17.9 33??  59d  83
2024 07 12 16  07 42 32.740   +04 17 22.70  .13282 .89112  17.9 33??  59d  83
2024 07 12 17  07 42 32.886   +04 17 24.78  .13367 .89031  17.9 33??  59d  83
2024 07 12 18  07 42 33.030   +04 17 26.94  .13452 .88950  17.9 33??  59d  82
2024 07 12 19  07 42 33.169   +04 17 29.19  .13537 .88870  17.9 33??  59d  82
2024 07 12 20  07 42 33.306   +04 17 31.52  .13621 .88789  17.9 33??  59d  82
2024 07 12 21  07 42 33.439   +04 17 33.94  .13706 .88708  17.8 34??  59d  82
2024 07 12 22  07 42 33.569   +04 17 36.44  .13791 .88627  17.8 34??  59d  82
2024 07 12 23  07 42 33.695   +04 17 39.03  .13876 .88546  17.8 34??  58d  82
2024 07 13 00  07 42 33.819   +04 17 41.69  .13961 .88465  17.8 34??  58d  82
2024 07 13 01  07 42 33.939   +04 17 44.44  .14046 .88384  17.8 34??  58d  82
2024 07 13 02  07 42 34.057   +04 17 47.27  .14131 .88303  17.8 34??  58d  82
2024 07 13 03  07 42 34.172   +04 17 50.18  .14216 .88222  17.8 34??  58d  82
2024 07 13 04  07 42 34.283   +04 17 53.17  .14301 .88141  17.8 34??  58d  82
2024 07 13 05  07 42 34.392   +04 17 56.24  .14386 .88060  17.7 34??  58d  82
2024 07 13 06  07 42 34.499   +04 17 59.39  .14471 .87980  17.7 34??  60d  81
2024 07 13 07  07 42 34.602   +04 18 02.62  .14556 .87899  17.7 34??  61d  81
2024 07 13 08  07 42 34.703   +04 18 05.93  .14641 .87817  17.7 34??  62d  81
2024 07 13 09  07 42 34.801   +04 18 09.31  .14726 .87736  17.7 34??  62d  82
2024 07 13 10  07 42 34.897   +04 18 12.77  .14812 .87655  17.7 34??  62d  82
2024 07 13 11  07 42 34.991   +04 18 16.31  .14897 .87574  17.7 34??  59d  83
2024 07 13 12  07 42 35.081   +04 18 19.92  .14982 .87493  17.6 34??  59d  83
2024 07 13 13  07 42 35.170   +04 18 23.61  .15067 .87412  17.6 34??  59d  83
2024 07 13 14  07 42 35.256   +04 18 27.37  .15152 .87331  17.6 34??  59d  82
2024 07 13 15  07 42 35.340   +04 18 31.21  .15237 .87250  17.6 34??  59d  82
2024 07 13 16  07 42 35.422   +04 18 35.12  .15322 .87169  17.6 34??  59d  82
2024 07 13 17  07 42 35.501   +04 18 39.11  .15408 .87088  17.6 34??  59d  82
2024 07 13 18  07 42 35.578   +04 18 43.17  .15493 .87007  17.6 34??  58d  82
2024 07 13 19  07 42 35.654   +04 18 47.31  .15578 .86925  17.6 34??  58d  82
2024 07 13 20  07 42 35.727   +04 18 51.51  .15663 .86844  17.5 34??  58d  82
2024 07 13 21  07 42 35.798   +04 18 55.79  .15749 .86763  17.5 34??  58d  82